Powrót do katalogu

NOAA 16 DEB

AktywnyPO
NORAD 42409·DEBRIS·🇺🇸 United States

Wystrzelony Sep 21, 2000 z Vandenberg Space Force Base

Loading…

Następne Przeloty (najbliższe 24 godziny)

TLE

ŚwieżeSource: Space-Track

Epoka: Sep 14, 2026, 10:46 UTC

1 42409U 00055TD  26257.44918421  .00015072  00000-0  18293-2 0  9994
2 42409  98.7819  73.5614 0018977  20.8476 339.3505 14.83538220548560

Śledź NOAA 16 DEB w czasie rzeczywistym z AllMySat

Download on the App Store